DW7126 Lourinha PT current weather conditions

sailwx.info

Wind from 217 at 11 knots gusting 17

Air temperature 13.9° C
Dewpoint 10.5° C

Last reported at 2017-Feb-27 13:50 UTC.
Time now 2017-Feb-27 14:23 UTC

Location: N 39°14' W 009°18'.
View on Google Maps.

See reports from other nearby stations

  
Tides and Currents Weather Stations Pressure Air Temp Water Temp Dewpoint Dewpoint Depression Visibility Wind Speed Wind Dir Waves Ship Positions
date/time (UTC)wind fromknots sea level pressurealtimeterstation pressurevisibilityair tempwater tempwave heightnotes
2017-Feb-27 13:50 217 11 gusting 17 13.9
2017-Feb-27 13:45 220 14 gusting 17 13.9
2017-Feb-27 13:40 246 12 gusting 18 13.9
2017-Feb-27 13:30 231 12 gusting 15 14.4
2017-Feb-27 13:25 233 12 gusting 16 13.9
2017-Feb-27 13:20 236 12 gusting 16 13.9
2017-Feb-27 13:15 215 10 gusting 14 13.9
2017-Feb-27 13:10 225 13 gusting 14 13.9
2017-Feb-27 13:05 248 12 gusting 15 13.9
2017-Feb-27 13:00 253 11 gusting 15 13.9
2017-Feb-27 12:55 207 11 gusting 15 13.9
2017-Feb-27 12:50 232 8 gusting 13 13.9
2017-Feb-27 12:45 260 10 gusting 13 14.4
2017-Feb-27 12:40 255 9 gusting 14 14.4
2017-Feb-27 12:35 248 9 gusting 14 13.9
2017-Feb-27 12:30 244 9 gusting 14 13.9
2017-Feb-27 12:25 240 9 gusting 14 13.9
2017-Feb-27 12:20 254 10 gusting 14 13.9
2017-Feb-27 12:15 234 10 gusting 16 13.9
2017-Feb-27 12:10 249 10 gusting 16 13.9
2017-Feb-27 12:05 254 11 gusting 16 13.9
2017-Feb-27 12:00 229 11 gusting 16 13.9
2017-Feb-27 11:55 264 7 gusting 14 13.9
2017-Feb-27 11:50 240 10 gusting 14 13.9
2017-Feb-27 11:45 244 9 gusting 13 13.9
2017-Feb-27 11:40 236 8 gusting 13 13.3
2017-Feb-27 11:35 227 10 gusting 13 13.3
2017-Feb-27 11:30 223 8 gusting 12 13.9
2017-Feb-27 11:25 227 8 gusting 13 13.9
2017-Feb-27 11:20 238 10 gusting 13 13.9
2017-Feb-27 11:15 227 8 gusting 15 13.9
2017-Feb-27 11:10 252 9 gusting 13 13.9
2017-Feb-27 11:05 225 10 gusting 13 13.9
2017-Feb-27 11:00 252 8 gusting 13 13.9
2017-Feb-27 10:55 268 10 gusting 12 13.9
2017-Feb-27 10:50 254 8 gusting 11 14.4
2017-Feb-27 10:45 259 6 gusting 10 14.4
2017-Feb-27 10:40 252 5 gusting 9 14.4
2017-Feb-27 10:35 237 6 gusting 9 13.9
2017-Feb-27 10:30 234 5 gusting 10 13.9
2017-Feb-27 10:25 245 5 gusting 10 14.4
2017-Feb-27 10:20 234 6 gusting 9 13.9
2017-Feb-27 10:15 234 5 gusting 11 13.9
2017-Feb-27 10:10 240 7 gusting 11 14.4
2017-Feb-27 10:05 252 6 gusting 11 13.9
2017-Feb-27 10:00 259 7 gusting 12 13.3
2017-Feb-27 09:55 258 6 gusting 10 13.3
2017-Feb-27 09:50 251 6 gusting 11 13.3
2017-Feb-27 09:45 259 8 gusting 11 13.3
2017-Feb-27 09:40 259 7 gusting 12 12.8
2017-Feb-27 09:35 275 8 gusting 12 12.8
2017-Feb-27 09:30 262 8 gusting 12 12.8
2017-Feb-27 09:25 269 6 gusting 8 13.3
2017-Feb-27 09:20 286 5 gusting 13 13.3
2017-Feb-27 09:15 251 5 gusting 13 13.3
2017-Feb-27 09:10 280 7 gusting 15 13.3
2017-Feb-27 09:05 296 9 gusting 15 12.8
2017-Feb-27 09:00 269 8 gusting 15 12.2
2017-Feb-27 08:55 270 8 gusting 15 12.2
2017-Feb-27 08:50 294 7 gusting 13 12.2
2017-Feb-27 08:45 275 6 gusting 12 12.2
2017-Feb-27 08:40 262 4 gusting 13 12.8
2017-Feb-27 08:35 278 8 gusting 14 12.2
2017-Feb-27 08:30 267 6 gusting 13 12.8
2017-Feb-27 08:25 326 6 gusting 11 12.8
2017-Feb-27 08:20 279 6 gusting 12 12.8
2017-Feb-27 08:15 293 6 gusting 13 12.8
2017-Feb-27 08:10 274 6 gusting 13 12.8
2017-Feb-27 08:05 289 6 gusting 10 12.2
2017-Feb-27 08:00 269 4 gusting 11 12.2
2017-Feb-27 07:55 300 5 gusting 11 12.2
2017-Feb-27 07:50 284 6 gusting 10 12.2
2017-Feb-27 07:45 252 3 gusting 10 12.2
2017-Feb-27 07:40 306 4 gusting 9 12.2
2017-Feb-27 07:35 297 4 gusting 10 12.2
2017-Feb-27 07:30 296 4 gusting 13 12.2
2017-Feb-27 07:25 297 6 gusting 13 12.2
2017-Feb-27 07:20 300 7 gusting 13 12.2
2017-Feb-27 07:10 309 1 gusting 7 12.2
2017-Feb-27 07:05 323 5 gusting 8 12.2
2017-Feb-27 06:55 299 2 gusting 8 12.2
2017-Feb-27 06:50 329 5 gusting 6 12.2
2017-Feb-27 06:40 303 5 gusting 7 11.7
2017-Feb-27 06:35 284 1 gusting 6 11.7
2017-Feb-27 06:30 267 3 gusting 6 11.7
2017-Feb-27 06:25 264 3 gusting 6 11.7
2017-Feb-27 06:20 262 3 gusting 7 11.7
2017-Feb-27 06:10 281 4 gusting 6 11.7
2017-Feb-27 06:05 281 2 gusting 5 11.7
2017-Feb-27 06:00 268 2 gusting 5 11.7
2017-Feb-27 05:55 270 2 gusting 6 11.7
2017-Feb-27 05:50 270 2 gusting 7 11.7
2017-Feb-27 05:45 275 2 gusting 9 11.7
2017-Feb-27 05:40 304 5 gusting 12 11.7
2017-Feb-27 05:35 253 7 gusting 12 11.7
2017-Feb-27 05:30 267 8 gusting 11 11.7
2017-Feb-27 05:25 264 5 gusting 9 11.7
2017-Feb-27 05:20 296 3 gusting 7 11.7
2017-Feb-27 05:15 280 4 gusting 8 11.7
2017-Feb-27 05:10 292 5 gusting 8 12.2
2017-Feb-27 05:05 338 5 gusting 9 12.2
2017-Feb-27 05:00 283 6 gusting 10 12.2
2017-Feb-27 04:55 324 6 gusting 10 12.2
2017-Feb-27 04:50 309 5 gusting 7 12.2
2017-Feb-27 04:45 288 4 gusting 6 12.2
2017-Feb-27 04:40 306 3 gusting 6 12.2
2017-Feb-27 04:30 320 0 gusting 5 11.1
2017-Feb-27 04:25 333 1 gusting 5 11.7
2017-Feb-27 04:15 341 3 gusting 5 11.1
2017-Feb-27 04:10 225 11.1
2017-Feb-27 04:05 225 11.1
2017-Feb-27 04:00 225 10.6
2017-Feb-27 03:55 225 10.6
2017-Feb-27 03:50 225 11.1
2017-Feb-27 03:45 225 11.1
2017-Feb-27 03:40 225 11.1
2017-Feb-27 03:35 225 10.6
2017-Feb-27 03:30 225 11.1
2017-Feb-27 03:25 225 11.1
2017-Feb-27 03:20 225 0 gusting 2 11.1
2017-Feb-27 03:15 225 10.6
2017-Feb-27 03:10 225 10.6
2017-Feb-27 03:00 225 3 gusting 4 10.6
2017-Feb-27 02:55 227 3 gusting 4 10.0
2017-Feb-27 02:50 227 3 gusting 4 10.0
2017-Feb-27 02:40 250 1 gusting 2 10.6
2017-Feb-27 02:35 251 1 gusting 4 11.1
2017-Feb-27 02:30 252 2 gusting 6 11.1
2017-Feb-27 02:25 254 3 gusting 6 11.1
2017-Feb-27 02:20 241 3 gusting 5 11.1
2017-Feb-27 02:15 243 3 gusting 5 11.1
2017-Feb-27 02:10 246 3 gusting 6 11.1
2017-Feb-27 02:05 254 4 gusting 6 11.1
2017-Feb-27 02:00 270 4 gusting 6 11.7
2017-Feb-27 01:55 244 4 gusting 6 11.1
2017-Feb-27 01:50 228 2 gusting 4 11.1
2017-Feb-27 01:45 228 11.1
2017-Feb-27 01:40 228 1 gusting 2 11.7
2017-Feb-27 01:35 228 1 gusting 2 11.7
2017-Feb-27 01:30 228 1 gusting 2 11.7
2017-Feb-27 01:25 228 1 gusting 3 11.7
2017-Feb-27 01:20 228 1 gusting 3 11.1
2017-Feb-27 01:15 229 1 gusting 3 11.1
2017-Feb-27 01:10 229 2 gusting 3 11.1
2017-Feb-27 01:05 229 1 gusting 2 11.1
2017-Feb-27 01:00 229 1 gusting 3 11.1
2017-Feb-27 00:55 229 2 gusting 3 11.7
2017-Feb-27 00:50 229 1 gusting 3 11.7
2017-Feb-27 00:45 231 2 gusting 3 11.7
2017-Feb-27 00:40 232 2 gusting 2 11.7
2017-Feb-27 00:30 232 2 gusting 4 12.2
2017-Feb-27 00:25 234 3 gusting 5 12.2
2017-Feb-27 00:20 240 2 gusting 5 12.2
2017-Feb-27 00:10 242 2 gusting 4 12.2
2017-Feb-27 00:05 241 2 gusting 6 12.2
2017-Feb-26 23:55 234 4 gusting 6 12.8
2017-Feb-26 23:50 238 2 gusting 7 12.8
2017-Feb-26 23:45 241 5 gusting 7 12.8
2017-Feb-26 23:40 246 5 gusting 8 12.2
2017-Feb-26 23:35 250 6 gusting 7 12.8
2017-Feb-26 23:30 246 5 gusting 7 12.8
2017-Feb-26 23:25 244 5 gusting 8 12.8
2017-Feb-26 23:20 243 6 gusting 8 12.8
2017-Feb-26 23:15 229 5 gusting 9 12.8
2017-Feb-26 23:10 250 6 gusting 9 12.8
2017-Feb-26 23:05 248 4 gusting 9 12.8
2017-Feb-26 23:00 248 6 gusting 10 12.8
2017-Feb-26 22:55 227 8 gusting 10 12.8
2017-Feb-26 22:50 246 5 gusting 6 12.8
2017-Feb-26 22:45 242 4 gusting 6 12.8
2017-Feb-26 22:40 242 5 gusting 7 12.2
2017-Feb-26 22:35 227 5 gusting 7 12.2
2017-Feb-26 22:30 227 4 gusting 6 12.2
2017-Feb-26 22:25 227 5 gusting 6 12.2
2017-Feb-26 22:20 220 4 gusting 6 12.2
2017-Feb-26 22:15 231 5 gusting 6 12.2
2017-Feb-26 22:10 224 6 gusting 6 12.2
2017-Feb-26 22:05 227 4 gusting 6 12.8
2017-Feb-26 21:55 237 4 gusting 6 12.8
2017-Feb-26 21:50 237 4 gusting 5 12.8
2017-Feb-26 21:45 234 3 gusting 6 12.8
2017-Feb-26 21:40 234 4 gusting 6 12.8
2017-Feb-26 21:35 231 4 gusting 6 12.8
2017-Feb-26 21:30 230 6 gusting 7 12.8
2017-Feb-26 21:25 238 5 gusting 10 12.8
2017-Feb-26 21:20 229 7 gusting 10 12.8
2017-Feb-26 21:15 229 8 gusting 9 12.8
2017-Feb-26 21:10 234 6 gusting 9 12.8
2017-Feb-26 21:05 234 6 gusting 9 12.8
2017-Feb-26 21:00 246 6 gusting 11 12.8
2017-Feb-26 20:55 235 6 gusting 11 12.8
2017-Feb-26 20:50 247 9 gusting 11 12.8
2017-Feb-26 20:45 252 7 gusting 9 13.3
2017-Feb-26 20:40 238 4 gusting 6 12.8
2017-Feb-26 20:35 241 4 gusting 6 12.8
2017-Feb-26 20:30 241 4 gusting 6 12.8
2017-Feb-26 20:25 242 4 gusting 6 12.8
2017-Feb-26 20:20 244 3 gusting 6 12.8
2017-Feb-26 20:15 240 4 gusting 6 12.8
2017-Feb-26 20:10 238 4 gusting 6 12.8
2017-Feb-26 20:05 236 4 gusting 5 12.8
2017-Feb-26 20:00 240 3 gusting 6 12.8
2017-Feb-26 19:55 242 2 gusting 6 12.8
2017-Feb-26 19:50 240 5 gusting 8 12.8
2017-Feb-26 19:45 250 6 gusting 8 12.8
2017-Feb-26 19:40 247 6 gusting 9 13.3
2017-Feb-26 19:35 236 6 gusting 9 13.3
2017-Feb-26 19:30 245 6 gusting 8 13.3
2017-Feb-26 19:25 261 4 gusting 6 13.3
2017-Feb-26 19:20 265 4 gusting 5 13.3
2017-Feb-26 19:15 243 3 gusting 6 13.3
2017-Feb-26 19:10 250 4 gusting 7 13.3
2017-Feb-26 19:05 247 5 gusting 7 13.3
2017-Feb-26 19:00 261 5 gusting 6 13.3
2017-Feb-26 18:55 232 4 gusting 6 13.3
2017-Feb-26 18:50 237 4 gusting 6 13.3
2017-Feb-26 18:45 250 3 gusting 6 13.3
2017-Feb-26 18:40 251 4 gusting 7 13.3
2017-Feb-26 18:35 252 5 gusting 7 13.3
2017-Feb-26 18:30 268 5 gusting 6 13.3
2017-Feb-26 18:25 265 5 gusting 6 13.3
2017-Feb-26 18:20 267 4 gusting 6 13.3
2017-Feb-26 18:15 256 4 gusting 8 13.3
2017-Feb-26 18:10 275 6 gusting 8 13.3
2017-Feb-26 18:05 277 5 gusting 7 13.9
2017-Feb-26 17:55 257 3 gusting 8 13.9
2017-Feb-26 17:50 270 6 gusting 8 13.9
2017-Feb-26 17:40 256 5 gusting 7 13.9
2017-Feb-26 17:35 266 5 gusting 7 13.9
2017-Feb-26 17:30 278 5 gusting 6 13.9
2017-Feb-26 17:25 261 4 gusting 8 13.9
2017-Feb-26 17:15 248 6 gusting 9 13.9
2017-Feb-26 17:10 259 6 gusting 9 13.9
2017-Feb-26 17:05 259 6 gusting 10 13.9
2017-Feb-26 17:00 280 6 gusting 11 13.9
2017-Feb-26 16:55 252 6 gusting 12 13.9
2017-Feb-26 16:45 258 6 gusting 11 14.4
2017-Feb-26 16:40 268 6 gusting 11 14.4
2017-Feb-26 16:35 260 6 gusting 11 15.0
2017-Feb-26 16:30 277 7 gusting 11 15.0
2017-Feb-26 16:25 260 6 gusting 10 15.6
2017-Feb-26 16:20 282 6 gusting 10 15.0
2017-Feb-26 16:15 295 6 gusting 11 15.6
2017-Feb-26 16:10 309 7 gusting 11 15.6
2017-Feb-26 16:05 289 6 gusting 11 15.0
2017-Feb-26 16:00 259 7 gusting 11 14.4
2017-Feb-26 15:55 261 6 gusting 11 15.0
2017-Feb-26 15:50 240 7 gusting 12 15.0
2017-Feb-26 15:45 267 7 gusting 12 15.0
2017-Feb-26 15:40 259 6 gusting 11 15.6
2017-Feb-26 15:35 280 7 gusting 12 15.6
2017-Feb-26 15:30 279 7 gusting 12 14.4
2017-Feb-26 15:25 275 6 gusting 12 14.4
2017-Feb-26 15:20 273 6 gusting 11 15.0
2017-Feb-26 15:10 290 5 gusting 11 15.0
2017-Feb-26 15:05 260 6 gusting 11 15.0
2017-Feb-26 14:55 259 8 gusting 12 14.4
2017-Feb-26 14:50 281 6 gusting 10 15.0
2017-Feb-26 14:45 279 6 gusting 10 15.0
2017-Feb-26 14:40 277 5 gusting 9 15.0
2017-Feb-26 14:35 298 4 gusting 9 15.0
2017-Feb-26 14:25 267 7 gusting 10 15.0
2017-Feb-26 14:20 273 6 gusting 11 15.0
2017-Feb-26 14:15 252 7 gusting 11 15.0
2017-Feb-26 14:10 286 6 gusting 10 15.0
2017-Feb-26 14:05 256 6 gusting 12 15.0
2017-Feb-26 14:00 284 6 gusting 12 15.0
2017-Feb-26 13:55 261 5 gusting 9 15.0
2017-Feb-26 13:50 269 6 gusting 11 14.4
2017-Feb-26 13:45 284 8 gusting 11 14.4
2017-Feb-26 13:35 305 5 gusting 11 15.0
2017-Feb-26 13:30 269 6 gusting 10 15.0
2017-Feb-26 13:25 269 6 gusting 12 15.0
2017-Feb-26 13:20 267 6 gusting 12 15.0
2017-Feb-26 13:15 267 6 gusting 13 15.0
2017-Feb-26 13:10 248 8 gusting 13 14.4
2017-Feb-26 13:05 257 6 gusting 13 15.0
2017-Feb-26 13:00 263 10 gusting 13 14.4
2017-Feb-26 12:55 261 8 gusting 13 14.4
2017-Feb-26 12:50 252 8 gusting 13 15.0
2017-Feb-26 12:45 257 10 gusting 13 14.4
2017-Feb-26 12:40 251 10 gusting 13 13.9
2017-Feb-26 12:35 254 10 gusting 13 14.4
2017-Feb-26 12:30 259 9 gusting 13 14.4
2017-Feb-26 12:25 273 9 gusting 13 14.4
2017-Feb-26 12:20 258 8 gusting 12 14.4
2017-Feb-26 12:15 267 6 gusting 11 13.9
2017-Feb-26 12:10 307 6 gusting 11 13.9
2017-Feb-26 12:05 263 7 gusting 12 13.9
2017-Feb-26 12:00 256 7 gusting 12 14.4
2017-Feb-26 11:55 267 5 gusting 10 14.4
2017-Feb-26 11:50 312 6 gusting 10 13.9
2017-Feb-26 11:45 276 5 gusting 11 13.9
2017-Feb-26 11:40 284 6 gusting 11 13.9
2017-Feb-26 11:35 262 6 gusting 11 13.9
2017-Feb-26 11:30 287 6 gusting 10 13.9
2017-Feb-26 11:25 290 5 gusting 10 13.9
2017-Feb-26 11:20 253 6 gusting 10 13.9
2017-Feb-26 11:15 250 6 gusting 12 13.9
2017-Feb-26 11:10 259 6 gusting 12 13.9
2017-Feb-26 11:05 263 5 gusting 8 14.4
2017-Feb-26 11:00 263 4 gusting 6 14.4
2017-Feb-26 10:55 277 3 gusting 7 14.4
2017-Feb-26 10:50 275 4 gusting 7 15.0
2017-Feb-26 10:45 261 4 gusting 6 15.0
2017-Feb-26 10:40 331 15.6
2017-Feb-26 10:35 331 1 gusting 3 15.0
2017-Feb-26 10:25 255 0 gusting 2 14.4
2017-Feb-26 10:20 219 14.4
2017-Feb-26 10:15 230 13.9
2017-Feb-26 10:10 230 3 gusting 6 13.9
2017-Feb-26 10:05 248 3 gusting 6 13.9
2017-Feb-26 10:00 229 4 gusting 6 13.9
2017-Feb-26 09:55 234 4 gusting 6 13.9
2017-Feb-26 09:45 252 4 gusting 6 13.3
2017-Feb-26 09:40 279 3 gusting 6 13.3
2017-Feb-26 09:35 264 3 gusting 5 13.3
2017-Feb-26 09:30 240 2 gusting 5 13.3
2017-Feb-26 09:25 261 2 gusting 5 13.3
2017-Feb-26 09:15 360 1 gusting 2 12.8
2017-Feb-26 09:10 026 12.8
2017-Feb-26 09:00 027 12.2
2017-Feb-26 08:55 028 12.2
2017-Feb-26 08:45 028 12.2
2017-Feb-26 08:40 028 12.2
2017-Feb-26 08:35 030 11.7
2017-Feb-26 08:30 030 11.7
2017-Feb-26 08:25 030 11.7
2017-Feb-26 08:20 031 11.7
2017-Feb-26 08:11 030 11.1
2017-Feb-26 08:05 030 11.1
2017-Feb-26 08:00 028 11.1
2017-Feb-26 07:55 028 11.1
2017-Feb-26 07:50 028 11.1
2017-Feb-26 07:45 029 0 gusting 2 11.1
2017-Feb-26 07:40 013 11.1
2017-Feb-26 07:35 012 11.1
2017-Feb-26 07:30 011 11.1
2017-Feb-26 07:25 011 11.1
2017-Feb-26 07:20 011 11.1
2017-Feb-26 07:15 018 11.1
2017-Feb-26 07:10 018 11.1
2017-Feb-26 07:05 018 11.1
2017-Feb-26 07:00 018 11.1
2017-Feb-26 06:55 018 11.1
2017-Feb-26 06:50 018 11.1
2017-Feb-26 06:45 018 11.1
2017-Feb-26 06:40 018 11.1
2017-Feb-26 06:35 018 11.1
2017-Feb-26 06:30 018 11.1
2017-Feb-26 06:25 018 10.6
2017-Feb-26 06:20 018 10.6
2017-Feb-26 06:15 018 10.6
2017-Feb-26 06:10 018 11.1
2017-Feb-26 06:00 018 11.1
2017-Feb-26 05:55 018 11.1
2017-Feb-26 05:50 018 11.1
2017-Feb-26 05:45 018 11.1
2017-Feb-26 05:40 018 11.1
2017-Feb-26 05:35 018 11.1
2017-Feb-26 05:30 018 11.1
2017-Feb-26 05:25 018 11.1
2017-Feb-26 05:20 018 11.1
2017-Feb-26 05:15 018 11.1
2017-Feb-26 05:10 018 11.1
2017-Feb-26 05:05 018 11.1
2017-Feb-26 05:00 018 11.1
2017-Feb-26 04:55 018 11.1
2017-Feb-26 04:50 018 11.1
2017-Feb-26 04:45 018 11.1
2017-Feb-26 04:40 018 11.1
2017-Feb-26 04:30 018 11.1
2017-Feb-26 04:25 018 11.1
2017-Feb-26 04:15 360 2 gusting 5 11.1
2017-Feb-26 04:10 033 2 gusting 6 11.1
2017-Feb-26 04:05 030 3 gusting 6 11.1
2017-Feb-26 04:00 024 2 gusting 5 11.1
2017-Feb-26 03:55 022 2 gusting 6 11.1
2017-Feb-26 03:50 025 4 gusting 8 11.1
2017-Feb-26 03:45 351 2 gusting 8 11.1
2017-Feb-26 03:40 355 3 gusting 7 11.1
2017-Feb-26 03:35 338 5 gusting 7 11.1
2017-Feb-26 03:30 360 2 gusting 4 11.1
2017-Feb-26 03:25 355 1 gusting 4 11.1
2017-Feb-26 03:15 346 3 gusting 5 11.1
2017-Feb-26 03:10 009 0 gusting 2 11.1
2017-Feb-26 03:00 005 2 gusting 4 11.1
2017-Feb-26 02:55 005 1 gusting 5 11.1
2017-Feb-26 02:50 360 1 gusting 6 11.1
2017-Feb-26 02:45 351 2 gusting 7 11.1
2017-Feb-26 02:40 360 4 gusting 7 11.1
2017-Feb-26 02:35 331 5 gusting 7 11.1
2017-Feb-26 02:30 355 3 gusting 7 10.6
2017-Feb-26 02:25 351 3 gusting 7 10.6
2017-Feb-26 02:15 024 1 gusting 3 10.6
2017-Feb-26 02:10 026 1 gusting 5 10.6
2017-Feb-26 02:05 025 2 gusting 5 10.6
2017-Feb-26 02:00 026 1 gusting 4 10.6
2017-Feb-26 01:55 026 10.6
2017-Feb-26 01:45 026 2 gusting 4 10.6
2017-Feb-26 01:40 019 0 gusting 5 10.6
2017-Feb-26 01:30 015 3 gusting 6 10.6
2017-Feb-26 01:25 032 1 gusting 5 10.6
2017-Feb-26 01:20 009 1 gusting 4 10.6
2017-Feb-26 01:15 009 0 gusting 4 10.6
2017-Feb-26 01:10 009 0 gusting 4 10.6
2017-Feb-26 01:00 013 0 gusting 4 10.6
2017-Feb-26 00:55 013 2 gusting 4 10.6
2017-Feb-26 00:45 009 1 gusting 4 10.6
2017-Feb-26 00:40 005 0 gusting 4 11.1
2017-Feb-26 00:35 347 1 gusting 4 11.1
2017-Feb-26 00:30 333 11.1
2017-Feb-26 00:25 333 1 gusting 6 11.1
2017-Feb-26 00:20 333 1 gusting 6 11.1
2017-Feb-26 00:15 018 0 gusting 2 11.1
2017-Feb-26 00:10 018 1 gusting 5 11.1
2017-Feb-26 00:05 019 1 gusting 5 11.1
2017-Feb-26 00:00 024 11.1
2017-Feb-25 23:55 024 11.1
2017-Feb-25 23:50 023 11.1
2017-Feb-25 23:45 019 3 gusting 7 11.1
2017-Feb-25 23:40 342 4 gusting 6 11.1
2017-Feb-25 23:35 355 2 gusting 5 11.1
2017-Feb-25 23:30 355 1 gusting 5 11.1
2017-Feb-25 23:25 355 1 gusting 6 11.1
2017-Feb-25 23:15 346 3 gusting 6 11.1
2017-Feb-25 23:10 351 1 gusting 6 11.1
2017-Feb-25 23:05 016 2 gusting 7 11.1
2017-Feb-25 23:00 340 6 gusting 7 11.1
2017-Feb-25 22:55 039 1 gusting 6 11.1
2017-Feb-25 22:50 009 1 gusting 6 11.1
2017-Feb-25 22:45 029 2 gusting 6 11.1
2017-Feb-25 22:40 027 4 gusting 6 11.7
2017-Feb-25 22:35 026 2 gusting 5 11.7
2017-Feb-25 22:30 022 0 gusting 3 11.7
2017-Feb-25 22:25 023 1 gusting 6 11.7
2017-Feb-25 22:15 024 3 gusting 6 11.7
2017-Feb-25 22:10 032 3 gusting 6 11.7
2017-Feb-25 22:00 360 5 gusting 8 11.7
2017-Feb-25 21:55 331 3 gusting 8 11.7
2017-Feb-25 21:50 014 5 gusting 10 11.7
2017-Feb-25 21:45 360 6 gusting 10 11.7
2017-Feb-25 21:40 017 5 gusting 8 11.7
2017-Feb-25 21:35 025 3 gusting 6 11.7
2017-Feb-25 21:30 344 3 gusting 6 11.7
2017-Feb-25 21:25 360 3 gusting 7 11.7
2017-Feb-25 21:20 355 3 gusting 7 11.7
2017-Feb-25 21:15 005 1 gusting 6 11.7
2017-Feb-25 21:10 348 4 gusting 6 11.7
2017-Feb-25 21:05 355 2 gusting 6 11.7
2017-Feb-25 21:00 360 4 gusting 10 11.7
2017-Feb-25 20:55 332 6 gusting 10 11.7
2017-Feb-25 20:50 360 4 gusting 8 11.7
2017-Feb-25 20:45 343 5 gusting 7 11.7
2017-Feb-25 20:40 342 3 gusting 8 11.7
2017-Feb-25 20:35 342 3 gusting 8 11.7
2017-Feb-25 20:25 020 4 gusting 9 11.7
2017-Feb-25 20:20 019 4 gusting 9 11.7
2017-Feb-25 20:15 360 6 gusting 10 11.7
2017-Feb-25 20:10 033 6 gusting 10 11.7
2017-Feb-25 20:05 360 3 gusting 7 11.7
2017-Feb-25 20:00 344 4 gusting 7 11.7
2017-Feb-25 19:55 360 5 gusting 9 11.7
2017-Feb-25 19:50 331 5 gusting 9 11.7
2017-Feb-25 19:40 360 6 gusting 8 11.7
2017-Feb-25 19:35 360 6 gusting 8 12.2
2017-Feb-25 19:30 360 5 gusting 7 12.2
2017-Feb-25 19:25 350 3 gusting 7 12.2
2017-Feb-25 19:20 360 3 gusting 7 12.2
2017-Feb-25 19:15 347 4 gusting 10 12.2
2017-Feb-25 19:10 348 5 gusting 10 12.2
2017-Feb-25 19:05 342 6 gusting 9 12.2
2017-Feb-25 19:00 347 5 gusting 8 12.2
2017-Feb-25 18:55 355 6 gusting 8 12.2
2017-Feb-25 18:45 326 4 gusting 8 12.2
2017-Feb-25 18:40 011 5 gusting 10 12.2
2017-Feb-25 18:35 347 6 gusting 11 12.2
2017-Feb-25 18:30 332 7 gusting 11 12.2
2017-Feb-25 18:25 360 6 gusting 9 12.2
2017-Feb-25 18:20 313 5 gusting 9 12.2
2017-Feb-25 18:15 292 6 gusting 10 12.2
2017-Feb-25 18:10 333 6 gusting 10 12.8
2017-Feb-25 18:05 319 5 gusting 7 12.8
2017-Feb-25 18:00 344 6 gusting 10 12.8
2017-Feb-25 17:55 320 5 gusting 10 12.8
2017-Feb-25 17:50 327 6 gusting 10 12.8
2017-Feb-25 17:45 360 5 gusting 8 12.8
2017-Feb-25 17:40 360 6 gusting 11 12.8
2017-Feb-25 17:35 338 5 gusting 11 12.8
2017-Feb-25 17:25 325 7 gusting 11 12.8
2017-Feb-25 17:20 310 6 gusting 8 12.8
2017-Feb-25 17:15 360 6 gusting 9 12.8
2017-Feb-25 17:10 323 6 gusting 10 12.8
2017-Feb-25 17:05 315 6 gusting 10 12.8
2017-Feb-25 16:55 314 6 gusting 10 12.8
2017-Feb-25 16:50 325 6 gusting 9 12.8
2017-Feb-25 16:45 360 6 gusting 10 12.8
2017-Feb-25 16:40 341 6 gusting 11 12.8
2017-Feb-25 16:35 322 7 gusting 11 12.8
2017-Feb-25 16:30 360 6 gusting 9 13.3
2017-Feb-25 16:25 333 4 gusting 8 13.3
2017-Feb-25 16:20 360 5 gusting 8 13.3
2017-Feb-25 16:15 297 4 gusting 7 13.3
2017-Feb-25 16:10 360 5 gusting 9 13.3
2017-Feb-25 16:00 360 4 gusting 8 13.3
2017-Feb-25 15:55 319 3 gusting 6 13.3
2017-Feb-25 15:50 306 4 gusting 8 13.3
2017-Feb-25 15:45 310 5 gusting 8 13.3
2017-Feb-25 15:40 305 5 gusting 7 13.3
2017-Feb-25 15:35 360 4 gusting 6 13.3
2017-Feb-25 15:30 324 3 gusting 7 13.3
2017-Feb-25 15:25 325 3 gusting 7 13.3
2017-Feb-25 15:20 360 5 gusting 8 13.3
2017-Feb-25 15:10 339 6 gusting 8 13.3
2017-Feb-25 15:05 341 5 gusting 8 13.3
2017-Feb-25 15:00 331 5 gusting 7 13.9
2017-Feb-25 14:55 360 5 gusting 7 13.9
2017-Feb-25 14:50 287 4 gusting 10 13.9
2017-Feb-25 14:45 279 7 gusting 10 13.9
2017-Feb-25 14:40 347 7 gusting 10 13.9
2017-Feb-25 14:35 360 6 gusting 10 13.9
2017-Feb-25 14:30 296 6 gusting 10 13.9
2017-Feb-25 14:25 360 5 gusting 10 13.9
2017-Feb-25 14:20 360 7 gusting 10 13.9
2017-Feb-25 14:15 332 6 gusting 9 13.9
2017-Feb-25 14:10 360 5 gusting 8 13.9
2017-Feb-25 14:05 360 6 gusting 8 13.9